Location: Longueuil
(45.5369°N, 73.5107°W)
Time: 12:20:05
(UTC-04:00)

ISS - Pass Details

Date: 02 October 2024
Orbit: 412 x 424 km, 51.6° (Epoch: 09 October)

Event Time Altitude Azimuth Distance (km) Brightness Sun altitude
Rises 19:22:02 0° 288° (WNW) 2,361 1.9 -9.7°
Reaches altitude 10° 19:24:35 10° 269° (W) 1,497 0.7 -10.2°
Maximum altitude 19:26:54 18° 225° (SW) 1,120 -1.1 -10.6°
Drops below altitude 10° 19:29:13 10° 181° (S) 1,494 -1.0 -11.0°
Sets 19:31:46 0° 161° (SSE) 2,356 -0.2 -11.4°
